date,time,SUV Intensity [MED/Hr],UV Index,Daily total [MED],Since Last [MED]
18/11/2022,00:02:48,0.000,0.0,0.0,0.0
18/11/2022,00:03:47,0.000,0.0,0.0,0.0
18/11/2022,00:04:47,0.001,0.0,0.0,0.0
18/11/2022,00:05:47,0.001,0.0,0.0,0.0
18/11/2022,00:06:47,-0.001,0.0,0.0,0.0
18/11/2022,00:07:47,-0.000,0.0,0.0,0.0
18/11/2022,00:08:47,0.000,0.0,0.0,0.0
18/11/2022,00:09:48,0.001,0.0,0.0,0.0
18/11/2022,00:10:47,0.001,0.0,0.0,0.0
18/11/2022,00:11:47,0.000,0.0,0.0,0.0
18/11/2022,00:12:48,0.000,0.0,0.0,0.0
18/11/2022,00:13:47,0.000,0.0,0.0,0.0
18/11/2022,00:14:47,-0.000,0.0,0.0,0.0
18/11/2022,00:15:48,0.000,0.0,0.0,0.0
18/11/2022,00:16:47,0.000,0.0,0.0,0.0
18/11/2022,00:17:47,0.000,0.0,0.0,0.0
18/11/2022,00:18:48,0.001,0.0,0.0,0.0
18/11/2022,00:19:47,0.000,0.0,0.0,0.0
18/11/2022,00:20:47,-0.000,0.0,0.0,0.0
18/11/2022,00:21:49,0.001,0.0,0.0,0.0
18/11/2022,00:22:48,0.000,0.0,0.0,0.0
18/11/2022,00:23:48,0.000,0.0,0.0,0.0
18/11/2022,00:24:48,0.000,0.0,0.0,0.0
18/11/2022,00:25:47,0.001,0.0,0.0,0.0
18/11/2022,00:27:20,-0.001,0.0,0.0,0.0
18/11/2022,00:28:47,-0.001,0.0,0.0,0.0
18/11/2022,00:29:47,0.000,0.0,0.0,0.0
18/11/2022,00:30:47,0.000,0.0,0.0,0.0
18/11/2022,00:31:47,0.000,0.0,0.0,0.0
18/11/2022,00:32:47,0.001,0.0,0.0,0.0
18/11/2022,00:33:48,0.000,0.0,0.0,0.0
18/11/2022,00:34:47,0.000,0.0,0.0,0.0
18/11/2022,00:35:47,0.000,0.0,0.0,0.0
18/11/2022,00:36:47,-0.001,0.0,0.0,0.0
18/11/2022,00:37:48,-0.000,0.0,0.0,0.0
18/11/2022,00:38:47,-0.001,0.0,0.0,0.0
18/11/2022,00:39:47,-0.001,0.0,0.0,0.0
18/11/2022,00:40:48,0.001,0.0,0.0,0.0
18/11/2022,00:41:47,0.000,0.0,0.0,0.0
18/11/2022,00:42:48,0.000,0.0,0.0,0.0
18/11/2022,00:43:47,0.001,0.0,0.0,0.0
18/11/2022,00:44:48,-0.000,0.0,0.0,0.0
18/11/2022,00:45:47,0.000,0.0,0.0,0.0
18/11/2022,00:46:47,-0.001,0.0,0.0,0.0
18/11/2022,00:47:47,0.000,0.0,0.0,0.0
18/11/2022,00:48:47,-0.000,0.0,0.0,0.0
18/11/2022,00:49:48,0.001,0.0,0.0,0.0
18/11/2022,00:50:47,0.000,0.0,0.0,0.0
18/11/2022,00:51:47,0.000,0.0,0.0,0.0
18/11/2022,00:52:47,0.000,0.0,0.0,0.0
18/11/2022,00:53:48,0.000,0.0,0.0,0.0
18/11/2022,00:54:47,0.001,0.0,0.0,0.0
18/11/2022,00:55:48,0.000,0.0,0.0,0.0
18/11/2022,00:56:47,0.000,0.0,0.0,0.0
18/11/2022,00:57:48,0.000,0.0,0.0,0.0
18/11/2022,00:58:49,0.000,0.0,0.0,0.0
18/11/2022,00:59:47,0.000,0.0,0.0,0.0
18/11/2022,01:00:47,0.000,0.0,0.0,0.0
18/11/2022,01:01:48,0.001,0.0,0.0,0.0
18/11/2022,01:02:47,0.000,0.0,0.0,0.0
18/11/2022,01:03:48,0.000,0.0,0.0,0.0
18/11/2022,01:04:47,0.000,0.0,0.0,0.0
18/11/2022,01:05:47,-0.000,0.0,0.0,0.0
18/11/2022,01:06:48,0.000,0.0,0.0,0.0
18/11/2022,01:07:47,0.000,0.0,0.0,0.0
18/11/2022,01:08:47,0.000,0.0,0.0,0.0
18/11/2022,01:09:48,0.001,0.0,0.0,0.0
18/11/2022,01:10:47,0.000,0.0,0.0,0.0
18/11/2022,01:11:47,0.000,0.0,0.0,0.0
18/11/2022,01:12:47,0.000,0.0,0.0,0.0
18/11/2022,01:13:47,0.000,0.0,0.0,0.0
18/11/2022,01:14:48,0.001,0.0,0.0,0.0
18/11/2022,01:15:47,0.000,0.0,0.0,0.0
18/11/2022,01:16:48,0.001,0.0,0.0,0.0
18/11/2022,01:17:47,0.000,0.0,0.0,0.0
18/11/2022,01:18:47,0.000,0.0,0.0,0.0
18/11/2022,01:19:48,0.000,0.0,0.0,0.0
18/11/2022,01:20:47,0.000,0.0,0.0,0.0
18/11/2022,01:21:47,0.000,0.0,0.0,0.0
18/11/2022,01:22:48,-0.000,0.0,0.0,0.0
18/11/2022,01:23:47,0.000,0.0,0.0,0.0
18/11/2022,01:24:47,0.000,0.0,0.0,0.0
18/11/2022,01:25:48,0.000,0.0,0.0,0.0
18/11/2022,01:26:48,0.001,0.0,0.0,0.0
18/11/2022,01:27:47,0.000,0.0,0.0,0.0
18/11/2022,01:28:47,0.000,0.0,0.0,0.0
18/11/2022,01:29:48,-0.001,0.0,0.0,0.0
18/11/2022,01:30:47,0.000,0.0,0.0,0.0
18/11/2022,01:31:47,0.000,0.0,0.0,0.0
18/11/2022,01:32:47,0.001,0.0,0.0,0.0
18/11/2022,01:33:48,-0.001,0.0,0.0,0.0
18/11/2022,01:34:48,0.000,0.0,0.0,0.0
18/11/2022,01:35:48,0.000,0.0,0.0,0.0
18/11/2022,01:36:47,-0.000,0.0,0.0,0.0
18/11/2022,01:37:48,0.000,0.0,0.0,0.0
18/11/2022,01:38:48,0.000,0.0,0.0,0.0
18/11/2022,01:39:48,0.000,0.0,0.0,0.0
18/11/2022,01:40:48,0.001,0.0,0.0,0.0
18/11/2022,01:41:48,-0.000,0.0,0.0,0.0
18/11/2022,01:42:48,0.000,0.0,0.0,0.0
18/11/2022,01:43:49,0.000,0.0,0.0,0.0
18/11/2022,01:44:48,0.000,0.0,0.0,0.0
18/11/2022,01:45:47,0.000,0.0,0.0,0.0
18/11/2022,01:46:47,0.000,0.0,0.0,0.0
18/11/2022,01:47:47,0.000,0.0,0.0,0.0
18/11/2022,01:48:48,0.000,0.0,0.0,0.0
18/11/2022,01:49:48,0.001,0.0,0.0,0.0
18/11/2022,01:50:47,0.000,0.0,0.0,0.0
18/11/2022,01:51:48,0.000,0.0,0.0,0.0
18/11/2022,01:52:47,-0.001,0.0,0.0,0.0
18/11/2022,01:53:47,0.000,0.0,0.0,0.0
18/11/2022,01:54:48,0.001,0.0,0.0,0.0
18/11/2022,01:55:47,0.000,0.0,0.0,0.0
18/11/2022,01:56:47,0.000,0.0,0.0,0.0
18/11/2022,01:57:48,-0.000,0.0,0.0,0.0
18/11/2022,01:58:48,0.000,0.0,0.0,0.0
18/11/2022,01:59:48,-0.001,0.0,0.0,0.0
18/11/2022,02:00:47,-0.001,0.0,0.0,0.0
18/11/2022,02:01:47,0.000,0.0,0.0,0.0
18/11/2022,02:02:48,-0.001,0.0,0.0,0.0
18/11/2022,02:03:47,0.001,0.0,0.0,0.0
18/11/2022,02:04:47,0.000,0.0,0.0,0.0
18/11/2022,02:05:48,0.000,0.0,0.0,0.0
18/11/2022,02:06:47,0.000,0.0,0.0,0.0
18/11/2022,02:07:48,-0.000,0.0,0.0,0.0
18/11/2022,02:08:48,0.000,0.0,0.0,0.0
18/11/2022,02:09:48,0.001,0.0,0.0,0.0
18/11/2022,02:10:47,0.001,0.0,0.0,0.0
18/11/2022,02:11:48,0.001,0.0,0.0,0.0
18/11/2022,02:12:48,0.001,0.0,0.0,0.0
18/11/2022,02:13:48,0.000,0.0,0.0,0.0
18/11/2022,02:14:48,-0.001,0.0,0.0,0.0
18/11/2022,02:15:48,0.000,0.0,0.0,0.0
18/11/2022,02:16:48,0.001,0.0,0.0,0.0
18/11/2022,02:17:48,0.000,0.0,0.0,0.0
18/11/2022,02:18:48,0.001,0.0,0.0,0.0
18/11/2022,02:19:47,0.000,0.0,0.0,0.0
18/11/2022,02:20:47,0.001,0.0,0.0,0.0
18/11/2022,02:21:48,0.000,0.0,0.0,0.0
18/11/2022,02:22:47,0.001,0.0,0.0,0.0
18/11/2022,02:23:47,0.000,0.0,0.0,0.0
18/11/2022,02:24:48,0.000,0.0,0.0,0.0
18/11/2022,02:25:48,0.000,0.0,0.0,0.0
18/11/2022,02:26:48,0.000,0.0,0.0,0.0
18/11/2022,02:27:48,0.000,0.0,0.0,0.0
18/11/2022,02:28:48,0.000,0.0,0.0,0.0
18/11/2022,02:29:47,0.000,0.0,0.0,0.0
18/11/2022,02:30:48,-0.001,0.0,0.0,0.0
18/11/2022,02:31:48,0.000,0.0,0.0,0.0
18/11/2022,02:32:48,0.000,0.0,0.0,0.0
18/11/2022,02:33:47,0.000,0.0,0.0,0.0
18/11/2022,02:34:47,0.000,0.0,0.0,0.0
18/11/2022,02:35:48,0.001,0.0,0.0,0.0
18/11/2022,02:36:48,0.000,0.0,0.0,0.0
18/11/2022,02:37:48,0.000,0.0,0.0,0.0
18/11/2022,02:38:47,0.000,0.0,0.0,0.0
18/11/2022,02:39:48,0.000,0.0,0.0,0.0
18/11/2022,02:40:48,0.001,0.0,0.0,0.0
18/11/2022,02:41:48,0.000,0.0,0.0,0.0
18/11/2022,02:42:48,0.000,0.0,0.0,0.0
18/11/2022,02:43:47,0.000,0.0,0.0,0.0
18/11/2022,02:44:48,0.000,0.0,0.0,0.0
18/11/2022,02:45:47,0.000,0.0,0.0,0.0
18/11/2022,02:46:48,0.000,0.0,0.0,0.0
18/11/2022,02:47:47,0.000,0.0,0.0,0.0
18/11/2022,02:48:48,0.000,0.0,0.0,0.0
18/11/2022,02:49:48,0.000,0.0,0.0,0.0
18/11/2022,02:50:48,0.000,0.0,0.0,0.0
18/11/2022,02:51:47,0.000,0.0,0.0,0.0
18/11/2022,02:52:47,0.000,0.0,0.0,0.0
18/11/2022,02:53:47,0.000,0.0,0.0,0.0
18/11/2022,02:54:48,-0.001,0.0,0.0,0.0
18/11/2022,02:55:48,0.000,0.0,0.0,0.0
18/11/2022,02:56:48,0.001,0.0,0.0,0.0
18/11/2022,02:57:48,0.000,0.0,0.0,0.0
18/11/2022,02:58:48,-0.000,0.0,0.0,0.0
18/11/2022,02:59:47,0.001,0.0,0.0,0.0
18/11/2022,03:00:48,0.000,0.0,0.0,0.0
18/11/2022,03:01:48,0.001,0.0,0.0,0.0
18/11/2022,03:02:48,0.000,0.0,0.0,0.0
18/11/2022,03:03:48,-0.001,0.0,0.0,0.0
18/11/2022,03:04:47,0.000,0.0,0.0,0.0
18/11/2022,03:05:48,0.000,0.0,0.0,0.0
18/11/2022,03:06:48,0.000,0.0,0.0,0.0
18/11/2022,03:07:48,0.000,0.0,0.0,0.0
18/11/2022,03:08:47,0.001,0.0,0.0,0.0
18/11/2022,03:09:48,0.000,0.0,0.0,0.0
18/11/2022,03:10:47,0.000,0.0,0.0,0.0
18/11/2022,03:11:48,0.000,0.0,0.0,0.0
18/11/2022,03:12:48,0.001,0.0,0.0,0.0
18/11/2022,03:13:48,0.000,0.0,0.0,0.0
18/11/2022,03:14:47,0.000,0.0,0.0,0.0
18/11/2022,03:16:10,0.001,0.0,0.0,0.0
18/11/2022,03:16:47,0.000,0.0,0.0,0.0
18/11/2022,03:17:48,0.000,0.0,0.0,0.0
18/11/2022,03:18:47,0.001,0.0,0.0,0.0
18/11/2022,03:19:48,-0.000,0.0,0.0,0.0
18/11/2022,03:20:47,0.000,0.0,0.0,0.0
18/11/2022,03:21:47,-0.000,0.0,0.0,0.0
18/11/2022,03:22:47,0.000,0.0,0.0,0.0
18/11/2022,03:23:48,-0.000,0.0,0.0,0.0
18/11/2022,03:24:47,0.000,0.0,0.0,0.0
18/11/2022,03:25:47,0.000,0.0,0.0,0.0
18/11/2022,03:26:47,0.000,0.0,0.0,0.0
18/11/2022,03:27:47,0.000,0.0,0.0,0.0
18/11/2022,03:28:48,0.000,0.0,0.0,0.0
18/11/2022,03:29:47,0.000,0.0,0.0,0.0
18/11/2022,03:30:48,0.000,0.0,0.0,0.0
18/11/2022,03:31:48,0.000,0.0,0.0,0.0
18/11/2022,03:32:48,0.000,0.0,0.0,0.0
18/11/2022,03:33:48,0.000,0.0,0.0,0.0
18/11/2022,03:34:48,0.000,0.0,0.0,0.0
18/11/2022,03:35:47,0.000,0.0,0.0,0.0
18/11/2022,03:36:48,0.000,0.0,0.0,0.0
18/11/2022,03:37:48,-0.001,0.0,0.0,0.0
18/11/2022,03:38:47,0.000,0.0,0.0,0.0
18/11/2022,03:39:47,0.000,0.0,0.0,0.0
18/11/2022,03:40:48,0.001,0.0,0.0,0.0
18/11/2022,03:41:48,0.000,0.0,0.0,0.0
18/11/2022,03:42:48,0.000,0.0,0.0,0.0
18/11/2022,03:43:47,0.000,0.0,0.0,0.0
18/11/2022,03:44:48,0.000,0.0,0.0,0.0
18/11/2022,03:45:48,0.000,0.0,0.0,0.0
18/11/2022,03:46:48,0.001,0.0,0.0,0.0
18/11/2022,03:47:48,0.000,0.0,0.0,0.0
18/11/2022,03:48:48,0.000,0.0,0.0,0.0
18/11/2022,03:49:47,0.000,0.0,0.0,0.0
18/11/2022,03:50:47,0.000,0.0,0.0,0.0
18/11/2022,03:51:48,-0.001,0.0,0.0,0.0
18/11/2022,03:52:48,0.000,0.0,0.0,0.0
18/11/2022,03:53:48,0.001,0.0,0.0,0.0
18/11/2022,03:54:48,-0.001,0.0,0.0,0.0
18/11/2022,03:55:47,0.000,0.0,0.0,0.0
18/11/2022,03:56:47,0.000,0.0,0.0,0.0
18/11/2022,03:57:48,0.000,0.0,0.0,0.0
18/11/2022,03:58:48,0.000,0.0,0.0,0.0
18/11/2022,03:59:48,0.000,0.0,0.0,0.0
18/11/2022,04:00:48,0.000,0.0,0.0,0.0
18/11/2022,04:01:48,0.000,0.0,0.0,0.0
18/11/2022,04:02:48,0.000,0.0,0.0,0.0
18/11/2022,04:03:48,0.000,0.0,0.0,0.0
18/11/2022,04:04:47,0.000,0.0,0.0,0.0
18/11/2022,04:05:47,0.000,0.0,0.0,0.0
18/11/2022,04:06:48,-0.001,0.0,0.0,0.0
18/11/2022,04:07:47,0.000,0.0,0.0,0.0
18/11/2022,04:08:47,0.001,0.0,0.0,0.0
18/11/2022,04:09:48,0.001,0.0,0.0,0.0
18/11/2022,04:10:47,-0.000,0.0,0.0,0.0
18/11/2022,04:11:48,-0.001,0.0,0.0,0.0
18/11/2022,04:12:48,0.000,0.0,0.0,0.0
18/11/2022,04:13:47,0.001,0.0,0.0,0.0
18/11/2022,04:14:48,-0.001,0.0,0.0,0.0
18/11/2022,04:15:48,0.000,0.0,0.0,0.0
18/11/2022,04:16:48,0.000,0.0,0.0,0.0
18/11/2022,04:17:47,0.000,0.0,0.0,0.0
18/11/2022,04:18:47,0.001,0.0,0.0,0.0
18/11/2022,04:19:48,0.001,0.0,0.0,0.0
18/11/2022,04:20:47,0.001,0.0,0.0,0.0
18/11/2022,04:21:48,0.001,0.0,0.0,0.0
18/11/2022,04:22:48,0.001,0.0,0.0,0.0
18/11/2022,04:23:47,0.000,0.0,0.0,0.0
18/11/2022,04:24:47,0.000,0.0,0.0,0.0
18/11/2022,04:25:48,0.000,0.0,0.0,0.0
18/11/2022,04:26:48,0.000,0.0,0.0,0.0
18/11/2022,04:27:48,0.000,0.0,0.0,0.0
18/11/2022,04:28:48,0.001,0.0,0.0,0.0
18/11/2022,04:29:48,0.000,0.0,0.0,0.0
18/11/2022,04:30:48,0.000,0.0,0.0,0.0
18/11/2022,04:31:48,0.000,0.0,0.0,0.0
18/11/2022,04:32:48,0.000,0.0,0.0,0.0
18/11/2022,04:33:48,0.000,0.0,0.0,0.0
18/11/2022,04:34:47,0.001,0.0,0.0,0.0
18/11/2022,04:35:48,0.000,0.0,0.0,0.0
18/11/2022,04:36:48,0.000,0.0,0.0,0.0
18/11/2022,04:37:48,-0.001,0.0,0.0,0.0
18/11/2022,04:38:48,0.000,0.0,0.0,0.0
18/11/2022,04:39:47,0.000,0.0,0.0,0.0
18/11/2022,04:40:48,0.000,0.0,0.0,0.0
18/11/2022,04:41:48,0.001,0.0,0.0,0.0
18/11/2022,04:42:48,0.000,0.0,0.0,0.0
18/11/2022,04:43:48,0.000,0.0,0.0,0.0
18/11/2022,04:44:48,0.001,0.0,0.0,0.0
18/11/2022,04:45:47,0.001,0.0,0.0,0.0
18/11/2022,04:46:47,0.000,0.0,0.0,0.0
18/11/2022,04:47:48,0.000,0.0,0.0,0.0
18/11/2022,04:48:47,0.001,0.0,0.0,0.0
18/11/2022,04:49:47,0.000,0.0,0.0,0.0
18/11/2022,04:50:48,-0.001,0.0,0.0,0.0
18/11/2022,04:51:48,0.001,0.0,0.0,0.0
18/11/2022,04:52:48,0.001,0.0,0.0,0.0
18/11/2022,04:53:48,-0.000,0.0,0.0,0.0
18/11/2022,04:54:48,0.000,0.0,0.0,0.0
18/11/2022,04:55:48,0.000,0.0,0.0,0.0
18/11/2022,04:56:47,-0.000,0.0,0.0,0.0
18/11/2022,04:57:47,0.001,0.0,0.0,0.0
18/11/2022,04:58:48,0.000,0.0,0.0,0.0
18/11/2022,04:59:48,0.001,0.0,0.0,0.0
18/11/2022,05:00:51,-0.001,0.0,0.0,0.0
18/11/2022,05:01:48,0.001,0.0,0.0,0.0
18/11/2022,05:02:48,0.001,0.0,0.0,0.0
18/11/2022,05:03:48,0.001,0.0,0.0,0.0
18/11/2022,05:04:48,0.001,0.0,0.0,0.0
18/11/2022,05:05:48,0.000,0.0,0.0,0.0
18/11/2022,05:06:48,0.001,0.0,0.0,0.0
18/11/2022,05:07:48,0.001,0.0,0.0,0.0
18/11/2022,05:08:48,0.001,0.0,0.0,0.0
18/11/2022,05:09:48,0.001,0.0,0.0,0.0
18/11/2022,05:10:48,0.001,0.0,0.0,0.0
18/11/2022,05:11:48,0.001,0.0,0.0,0.0
18/11/2022,05:12:48,0.001,0.0,0.0,0.0
18/11/2022,05:13:48,0.001,0.0,0.0,0.0
18/11/2022,05:14:48,0.001,0.0,0.0,0.0
18/11/2022,05:15:48,0.001,0.0,0.0,0.0
18/11/2022,05:16:48,0.001,0.0,0.0,0.0
18/11/2022,05:17:48,0.001,0.0,0.0,0.0
18/11/2022,05:18:48,0.001,0.0,0.0,0.0
18/11/2022,05:19:48,0.001,0.0,0.0,0.0
18/11/2022,05:20:48,-0.000,0.0,0.0,0.0
18/11/2022,05:21:48,0.001,0.0,0.0,0.0
18/11/2022,05:22:48,0.001,0.0,0.0,0.0
18/11/2022,05:23:48,0.001,0.0,0.0,0.0
18/11/2022,05:24:48,0.001,0.0,0.0,0.0
18/11/2022,05:25:48,0.001,0.0,0.0,0.0
18/11/2022,05:26:48,0.001,0.0,0.0,0.0
18/11/2022,05:27:48,0.001,0.0,0.0,0.0
18/11/2022,05:28:48,0.001,0.0,0.0,0.0
18/11/2022,05:29:48,0.000,0.0,0.0,0.0
18/11/2022,05:30:48,0.001,0.0,0.0,0.0
18/11/2022,05:31:48,0.001,0.0,0.0,0.0
18/11/2022,05:32:48,0.000,0.0,0.0,0.0
18/11/2022,05:33:48,0.000,0.0,0.0,0.0
18/11/2022,05:34:48,-0.000,0.0,0.0,0.0
18/11/2022,05:35:48,-0.000,0.0,0.0,0.0
18/11/2022,05:36:48,0.001,0.0,0.0,0.0
18/11/2022,05:37:48,0.001,0.0,0.0,0.0
18/11/2022,05:38:48,0.001,0.0,0.0,0.0
18/11/2022,05:39:47,-0.000,0.0,0.0,0.0
18/11/2022,05:40:48,0.001,0.0,0.0,0.0
18/11/2022,05:41:48,0.002,0.0,0.0,0.0
18/11/2022,05:42:48,-0.000,0.0,0.0,0.0
18/11/2022,05:43:48,0.000,0.0,0.0,0.0
18/11/2022,05:44:48,0.001,0.0,0.0,0.0
18/11/2022,05:45:48,0.001,0.0,0.0,0.0
18/11/2022,05:46:48,0.001,0.0,0.0,0.0
18/11/2022,05:47:48,0.001,0.0,0.0,0.0
18/11/2022,05:48:48,0.001,0.0,0.0,0.0
18/11/2022,05:49:48,0.001,0.0,0.0,0.0
18/11/2022,05:50:48,0.001,0.0,0.0,0.0
18/11/2022,05:51:48,0.000,0.0,0.0,0.0
18/11/2022,05:52:49,0.001,0.0,0.0,0.0
18/11/2022,05:53:49,0.001,0.0,0.0,0.0
18/11/2022,05:54:48,0.001,0.0,0.0,0.0
18/11/2022,05:55:48,0.001,0.0,0.0,0.0
18/11/2022,05:56:48,0.001,0.0,0.0,0.0
18/11/2022,05:57:48,0.001,0.0,0.0,0.0
18/11/2022,05:58:48,0.001,0.0,0.0,0.0
18/11/2022,05:59:48,0.001,0.0,0.0,0.0
18/11/2022,06:00:48,-0.000,0.0,0.0,0.0
18/11/2022,06:01:48,0.001,0.0,0.0,0.0
18/11/2022,06:02:49,-0.001,0.0,0.0,0.0
18/11/2022,06:03:49,0.001,0.0,0.0,0.0
18/11/2022,06:04:48,0.001,0.0,0.0,0.0
18/11/2022,06:05:48,-0.001,0.0,0.0,0.0
18/11/2022,06:06:48,0.001,0.0,0.0,0.0
18/11/2022,06:07:48,0.001,0.0,0.0,0.0
18/11/2022,06:08:48,0.002,0.0,0.0,0.0
18/11/2022,06:09:48,0.001,0.0,0.0,0.0
18/11/2022,06:10:48,0.000,0.0,0.0,0.0
18/11/2022,06:11:48,0.001,0.0,0.0,0.0
18/11/2022,06:12:48,0.001,0.0,0.0,0.0
18/11/2022,06:13:48,0.001,0.0,0.0,0.0
18/11/2022,06:14:47,0.001,0.0,0.0,0.0
18/11/2022,06:15:48,0.001,0.0,0.0,0.0
18/11/2022,06:16:48,0.001,0.0,0.0,0.0
18/11/2022,06:17:48,0.001,0.0,0.0,0.0
18/11/2022,06:18:48,0.000,0.0,0.0,0.0
18/11/2022,06:19:48,0.001,0.0,0.0,0.0
18/11/2022,06:20:48,0.000,0.0,0.0,0.0
18/11/2022,06:21:48,0.001,0.0,0.0,0.0
18/11/2022,06:22:48,0.001,0.0,0.0,0.0
18/11/2022,06:23:48,0.001,0.0,0.0,0.0
18/11/2022,06:24:48,0.001,0.0,0.0,0.0
18/11/2022,06:25:49,0.001,0.0,0.0,0.0
18/11/2022,06:26:49,0.001,0.0,0.0,0.0
18/11/2022,06:27:48,0.000,0.0,0.0,0.0
18/11/2022,06:28:48,0.001,0.0,0.0,0.0
18/11/2022,06:29:48,0.001,0.0,0.0,0.0
18/11/2022,06:30:48,0.001,0.0,0.0,0.0
18/11/2022,06:31:48,0.001,0.0,0.0,0.0
18/11/2022,06:32:48,0.001,0.0,0.0,0.0
18/11/2022,06:33:48,0.001,0.0,0.0,0.0
18/11/2022,06:34:48,0.001,0.0,0.0,0.0
18/11/2022,06:35:48,0.001,0.0,0.0,0.0
18/11/2022,06:36:48,0.001,0.0,0.0,0.0
18/11/2022,06:37:48,0.001,0.0,0.0,0.0
18/11/2022,06:38:48,0.001,0.0,0.0,0.0
18/11/2022,06:39:48,0.001,0.0,0.0,0.0
18/11/2022,06:40:48,0.000,0.0,0.0,0.0
18/11/2022,06:41:48,0.001,0.0,0.0,0.0
18/11/2022,06:42:48,0.001,0.0,0.0,0.0
18/11/2022,06:43:48,0.001,0.0,0.0,0.0
18/11/2022,06:44:49,0.001,0.0,0.0,0.0
18/11/2022,06:45:48,0.001,0.0,0.0,0.0
18/11/2022,06:46:48,0.001,0.0,0.0,0.0
18/11/2022,06:47:49,0.001,0.0,0.0,0.0
18/11/2022,06:48:48,-0.000,0.0,0.0,0.0
18/11/2022,06:49:48,0.001,0.0,0.0,0.0
18/11/2022,06:50:48,0.001,0.0,0.0,0.0
18/11/2022,06:51:48,0.001,0.0,0.0,0.0
18/11/2022,06:52:48,0.001,0.0,0.0,0.0
18/11/2022,06:53:48,0.001,0.0,0.0,0.0
18/11/2022,06:54:48,0.001,0.0,0.0,0.0
18/11/2022,06:55:48,0.001,0.0,0.0,0.0
18/11/2022,06:56:48,0.001,0.0,0.0,0.0
18/11/2022,06:57:48,0.001,0.0,0.0,0.0
18/11/2022,06:58:48,0.001,0.0,0.0,0.0
18/11/2022,06:59:48,0.001,0.0,0.0,0.0
18/11/2022,07:00:48,0.001,0.0,0.0,0.0
18/11/2022,07:01:48,0.001,0.0,0.0,0.0
18/11/2022,07:02:48,0.001,0.0,0.0,0.0
18/11/2022,07:03:48,0.001,0.0,0.0,0.0
18/11/2022,07:04:48,-0.000,0.0,0.0,0.0
18/11/2022,07:05:48,0.001,0.0,0.0,0.0
18/11/2022,07:06:48,0.000,0.0,0.0,0.0
18/11/2022,07:07:48,0.001,0.0,0.0,0.0
18/11/2022,07:08:48,0.001,0.0,0.0,0.0
18/11/2022,07:09:48,0.001,0.0,0.0,0.0
18/11/2022,07:10:48,0.001,0.0,0.0,0.0
18/11/2022,07:11:48,0.001,0.0,0.0,0.0
18/11/2022,07:12:48,0.001,0.0,0.0,0.0
18/11/2022,07:13:48,0.001,0.0,0.0,0.0
18/11/2022,07:14:49,0.001,0.0,0.0,0.0
18/11/2022,07:15:48,0.001,0.0,0.0,0.0
18/11/2022,07:16:48,0.002,0.0,0.0,0.0
18/11/2022,07:17:48,0.002,0.0,0.0,0.0
18/11/2022,07:18:48,0.001,0.0,0.0,0.0
18/11/2022,07:19:48,0.002,0.0,0.0,0.0
18/11/2022,07:20:48,0.001,0.0,0.0,0.0
18/11/2022,07:21:48,0.002,0.0,0.0,0.0
18/11/2022,07:22:48,0.003,0.0,0.0,0.0
18/11/2022,07:23:48,0.002,0.0,0.0,0.0
18/11/2022,07:24:48,0.002,0.0,0.0,0.0
18/11/2022,07:25:48,0.002,0.0,0.0,0.0
18/11/2022,07:26:48,0.002,0.0,0.0,0.0
18/11/2022,07:27:49,0.003,0.0,0.0,0.0
18/11/2022,07:28:48,0.003,0.0,0.0,0.0
18/11/2022,07:29:48,0.004,0.0,0.0,0.0
18/11/2022,07:30:49,0.004,0.0,0.0,0.0
18/11/2022,07:31:48,0.004,0.0,0.0,0.0
18/11/2022,07:32:48,0.004,0.0,0.0,0.0
18/11/2022,07:33:48,0.003,0.0,0.0,0.0
18/11/2022,07:34:48,0.004,0.0,0.0,0.0
18/11/2022,07:35:48,0.005,0.0,0.0,0.0
18/11/2022,07:36:48,0.006,0.0,0.0,0.0
18/11/2022,07:37:48,0.004,0.0,0.0,0.0
18/11/2022,07:38:48,0.006,0.0,0.0,0.0
18/11/2022,07:39:48,0.005,0.0,0.0,0.0
18/11/2022,07:40:48,0.005,0.0,0.0,0.0
18/11/2022,07:41:53,0.006,0.0,0.0,0.0
18/11/2022,07:42:49,0.007,0.0,0.0,0.0
18/11/2022,07:43:49,0.006,0.0,0.0,0.0
18/11/2022,07:44:48,0.006,0.0,0.0,0.0
18/11/2022,07:45:48,0.007,0.0,0.0,0.0
18/11/2022,07:46:48,0.007,0.0,0.0,0.0
18/11/2022,07:47:49,0.008,0.0,0.001,0.001
18/11/2022,07:48:48,0.008,0.0,0.001,0.0
18/11/2022,07:49:48,0.007,0.0,0.001,0.0
18/11/2022,07:50:49,0.009,0.0,0.001,0.0
18/11/2022,07:51:48,0.009,0.0,0.001,0.0
18/11/2022,07:52:48,0.009,0.0,0.001,0.0
18/11/2022,07:53:49,0.010,0.0,0.001,0.0
18/11/2022,07:54:48,0.011,0.0,0.002,0.001
18/11/2022,07:55:48,0.011,0.0,0.002,0.0
18/11/2022,07:56:48,0.011,0.0,0.002,0.0
18/11/2022,07:57:48,0.011,0.0,0.002,0.0
18/11/2022,07:58:48,0.012,0.0,0.002,0.0
18/11/2022,07:59:48,0.012,0.0,0.003,0.001
18/11/2022,08:00:48,0.013,0.0,0.003,0.0
18/11/2022,08:01:48,0.012,0.0,0.003,0.0
18/11/2022,08:02:48,0.014,0.0,0.003,0.0
18/11/2022,08:03:48,0.014,0.0,0.003,0.0
18/11/2022,08:04:49,0.015,0.0,0.004,0.001
18/11/2022,08:05:48,0.016,0.0,0.004,0.0
18/11/2022,08:06:49,0.016,0.0,0.004,0.0
18/11/2022,08:07:48,0.017,0.0,0.004,0.0
18/11/2022,08:08:49,0.018,0.0,0.005,0.001
18/11/2022,08:09:48,0.017,0.0,0.005,0.0
18/11/2022,08:10:49,0.018,0.0,0.005,0.0
18/11/2022,08:11:48,0.020,0.0,0.006,0.001
18/11/2022,08:12:48,0.019,0.0,0.006,0.0
18/11/2022,08:13:48,0.020,0.0,0.006,0.0
18/11/2022,08:14:48,0.020,0.0,0.007,0.001
18/11/2022,08:15:48,0.021,0.0,0.007,0.0
18/11/2022,08:16:48,0.021,0.0,0.007,0.0
18/11/2022,08:17:48,0.023,0.0,0.008,0.001
18/11/2022,08:18:48,0.022,0.0,0.008,0.0
18/11/2022,08:19:48,0.023,0.0,0.008,0.0
18/11/2022,08:20:48,0.024,0.0,0.009,0.001
18/11/2022,08:21:49,0.026,0.0,0.009,0.0
18/11/2022,08:22:48,0.026,0.0,0.01,0.001
18/11/2022,08:23:48,0.026,0.0,0.01,0.0
18/11/2022,08:24:48,0.027,0.0,0.011,0.001
18/11/2022,08:25:48,0.028,0.0,0.011,0.0
18/11/2022,08:26:48,0.028,0.0,0.011,0.0
18/11/2022,08:27:48,0.028,0.0,0.012,0.001
18/11/2022,08:28:48,0.030,0.0,0.012,0.0
18/11/2022,08:29:48,0.030,0.0,0.013,0.001
18/11/2022,08:30:48,0.031,0.0,0.013,0.0
18/11/2022,08:31:48,0.032,0.0,0.014,0.001
18/11/2022,08:32:48,0.033,0.0,0.015,0.001
18/11/2022,08:33:48,0.033,0.0,0.015,0.0
18/11/2022,08:34:48,0.035,0.0,0.016,0.001
18/11/2022,08:35:48,0.036,0.0,0.016,0.0
18/11/2022,08:36:48,0.036,0.0,0.017,0.001
18/11/2022,08:37:48,0.036,0.0,0.017,0.0
18/11/2022,08:38:48,0.038,0.0,0.018,0.001
18/11/2022,08:39:48,0.039,0.0,0.019,0.001
18/11/2022,08:40:48,0.040,0.0,0.019,0.0
18/11/2022,08:41:49,0.041,0.0,0.02,0.001
18/11/2022,08:42:48,0.042,0.0,0.021,0.001
18/11/2022,08:43:48,0.042,0.0,0.021,0.0
18/11/2022,08:44:49,0.043,0.0,0.022,0.001
18/11/2022,08:45:48,0.044,0.0,0.023,0.001
18/11/2022,08:46:48,0.046,0.0,0.024,0.001
18/11/2022,08:47:48,0.046,0.0,0.024,0.0
18/11/2022,08:48:48,0.047,0.0,0.025,0.001
18/11/2022,08:49:49,0.050,0.0,0.026,0.001
18/11/2022,08:50:48,0.049,0.0,0.027,0.001
18/11/2022,08:51:48,0.051,0.0,0.028,0.001
18/11/2022,08:52:48,0.051,0.0,0.029,0.001
18/11/2022,08:53:48,0.053,0.0,0.029,0.0
18/11/2022,08:54:49,0.055,0.0,0.03,0.001
18/11/2022,08:55:49,0.054,0.0,0.031,0.001
18/11/2022,08:56:49,0.056,0.0,0.032,0.001
18/11/2022,08:57:48,0.057,0.0,0.033,0.001
18/11/2022,08:58:49,0.057,0.0,0.034,0.001
18/11/2022,08:59:48,0.060,0.0,0.035,0.001
18/11/2022,09:00:49,0.060,0.0,0.036,0.001
18/11/2022,09:01:48,0.061,0.0,0.037,0.001
18/11/2022,09:02:48,0.063,0.0,0.038,0.001
18/11/2022,09:03:48,0.063,0.0,0.039,0.001
18/11/2022,09:04:48,0.066,0.0,0.04,0.001
18/11/2022,09:05:49,0.065,0.0,0.041,0.001
18/11/2022,09:06:48,0.067,0.0,0.042,0.001
18/11/2022,09:07:48,0.068,0.0,0.043,0.001
18/11/2022,09:08:49,0.069,0.0,0.045,0.002
18/11/2022,09:09:48,0.069,0.0,0.046,0.001
18/11/2022,09:10:48,0.071,0.0,0.047,0.001
18/11/2022,09:11:49,0.073,0.0,0.048,0.001
18/11/2022,09:12:48,0.074,0.0,0.049,0.001
18/11/2022,09:13:48,0.075,0.0,0.051,0.002
18/11/2022,09:14:48,0.077,0.0,0.052,0.001
18/11/2022,09:15:48,0.078,0.0,0.053,0.001
18/11/2022,09:16:48,0.080,0.0,0.054,0.001
18/11/2022,09:17:48,0.081,0.0,0.056,0.002
18/11/2022,09:18:48,0.081,0.0,0.057,0.001
18/11/2022,09:19:48,0.082,0.0,0.058,0.001
18/11/2022,09:20:49,0.084,0.0,0.06,0.002
18/11/2022,09:21:48,0.085,0.0,0.061,0.001
18/11/2022,09:22:48,0.086,0.0,0.063,0.002
18/11/2022,09:23:49,0.089,0.0,0.064,0.001
18/11/2022,09:24:48,0.089,0.0,0.066,0.002
18/11/2022,09:25:48,0.090,0.0,0.067,0.001
18/11/2022,09:26:48,0.091,0.0,0.069,0.002
18/11/2022,09:27:48,0.093,0.0,0.07,0.001
18/11/2022,09:28:49,0.094,0.0,0.072,0.002
18/11/2022,09:29:48,0.095,0.0,0.073,0.001
18/11/2022,09:30:48,0.098,0.0,0.075,0.002
18/11/2022,09:31:48,0.098,0.0,0.077,0.002
18/11/2022,09:32:48,0.100,0.0,0.078,0.001
18/11/2022,09:33:48,0.101,0.0,0.08,0.002
18/11/2022,09:34:48,0.102,0.0,0.082,0.002
18/11/2022,09:35:48,0.104,0.0,0.083,0.001
18/11/2022,09:36:48,0.105,0.0,0.085,0.002
18/11/2022,09:37:48,0.106,0.0,0.087,0.002
18/11/2022,09:38:49,0.109,0.0,0.089,0.002
18/11/2022,09:39:48,0.109,0.0,0.09,0.001
18/11/2022,09:40:48,0.110,0.0,0.092,0.002
18/11/2022,09:41:49,0.113,0.0,0.094,0.002
18/11/2022,09:42:48,0.113,0.0,0.096,0.002
18/11/2022,09:43:48,0.115,0.0,0.098,0.002
18/11/2022,09:44:48,0.116,0.0,0.1,0.002
18/11/2022,09:45:49,0.117,0.0,0.102,0.002
18/11/2022,09:46:48,0.118,0.0,0.104,0.002
18/11/2022,09:47:48,0.120,0.0,0.106,0.002
18/11/2022,09:48:48,0.121,0.0,0.108,0.002
18/11/2022,09:49:49,0.121,0.0,0.11,0.002
18/11/2022,09:50:48,0.125,0.0,0.112,0.002
18/11/2022,09:51:48,0.125,0.0,0.114,0.002
18/11/2022,09:52:48,0.127,0.0,0.116,0.002
18/11/2022,09:53:48,0.128,0.0,0.118,0.002
18/11/2022,09:54:49,0.130,0.0,0.12,0.002
18/11/2022,09:55:48,0.131,0.0,0.122,0.002
18/11/2022,09:56:48,0.132,0.0,0.125,0.003
18/11/2022,09:57:48,0.134,0.0,0.127,0.002
18/11/2022,09:58:48,0.134,0.0,0.129,0.002
18/11/2022,09:59:49,0.136,0.0,0.131,0.002
18/11/2022,10:00:48,0.138,0.0,0.134,0.003
18/11/2022,10:01:48,0.139,0.0,0.136,0.002
18/11/2022,10:02:48,0.140,0.0,0.138,0.002
18/11/2022,10:03:49,0.142,0.0,0.14,0.002
18/11/2022,10:04:48,0.143,0.0,0.143,0.003
18/11/2022,10:05:48,0.145,0.0,0.145,0.002
18/11/2022,10:06:49,0.146,0.0,0.148,0.003
18/11/2022,10:07:48,0.147,0.0,0.15,0.002
18/11/2022,10:08:48,0.149,0.0,0.153,0.003
18/11/2022,10:09:48,0.150,0.0,0.155,0.002
18/11/2022,10:10:48,0.151,0.0,0.158,0.003
18/11/2022,10:11:48,0.153,0.0,0.16,0.002
18/11/2022,10:12:48,0.154,0.0,0.163,0.003
18/11/2022,10:13:48,0.155,0.0,0.165,0.002
18/11/2022,10:14:49,0.156,0.0,0.168,0.003
18/11/2022,10:15:48,0.158,0.0,0.17,0.002
18/11/2022,10:16:48,0.159,0.0,0.173,0.003